Location: Pcim
(49.7500°N, 19.9670°E)
Time: 23:05:42
(UTC+02:00)

CUTE 1.7 + AOD 2 - Visible Passes

Search period start: 24 April 2024 00:00
Search period end: 04 May 2024 00:00
Orbit: 570 x 588 km, 97.8° (Epoch: 23 April)

Date Brightness Start Highest point End Pass type
(mag) Time Alt. Az. Time Alt. Az. Time Alt. Az.
24 Apr ? 03:48:02 10° NNE 03:51:50 36° E 03:55:36 10° SSE visible
25 Apr ? 03:52:43 10° NNE 03:56:36 40° E 04:00:26 10° S visible
26 Apr ? 03:57:24 10° NNE 04:01:20 45° E 04:05:14 10° S visible
27 Apr ? 04:02:03 10° NNE 04:06:03 50° E 04:09:59 10° S visible
28 Apr ? 04:06:42 10° NNE 04:10:44 56° E 04:14:43 10° S visible
29 Apr ? 04:11:20 10° NNE 04:15:23 63° ESE 04:19:26 10° S visible
30 Apr ? 04:15:57 10° NNE 04:20:01 71° ESE 04:24:05 10° S visible
01 May ? 04:20:32 10° NNE 04:24:38 79° ESE 04:28:42 10° S visible
02 May ? 04:25:07 10° NNE 04:29:13 88° E 04:33:17 10° SSW visible
03 May ? 02:56:46 10° ENE 02:57:54 11° E 02:59:02 10° ESE visible
03 May ? 04:29:41 10° NNE 04:33:47 83° WNW 04:37:51 10° SSW visible
